Time,TemperatureF,DewpointF,PressureIn,WindDirection,WindDirectionDegrees,WindSpeedMPH,WindSpeedGustMPH,Humidity,HourlyPrecipIn,Conditions,Clouds,dailyrainin,SolarRadiationWatts/m^2,SoftwareType,DateUTC
2013-07-20 00:02:00,75.0,71.0,30.13,SW,222,1.0,3.0,87,0.00,,,0.00,0.000000,,2013-07-20 04:02:00,
2013-07-20 00:12:00,75.0,71.0,30.13,SW,222,1.0,3.0,87,0.00,,,0.00,0.000000,,2013-07-20 04:12:00,
2013-07-20 00:22:00,75.0,71.0,30.13,SW,222,1.0,3.0,87,0.00,,,0.00,0.000000,,2013-07-20 04:22:00,
2013-07-20 00:52:00,72.0,70.0,30.12,WNW,286,0.0,0.0,94,0.16,,,0.16,0.000000,,2013-07-20 04:52:00,
2013-07-20 01:02:00,72.0,70.0,30.12,WNW,286,0.0,0.0,94,0.16,,,0.16,0.000000,,2013-07-20 05:02:00,
2013-07-20 01:12:00,72.0,70.0,30.12,WNW,286,0.0,0.0,94,0.16,,,0.16,0.000000,,2013-07-20 05:12:00,
2013-07-20 01:22:00,72.0,70.0,30.12,WNW,286,0.0,0.0,95,0.00,,,0.16,0.000000,,2013-07-20 05:22:00,
2013-07-20 01:32:00,72.0,70.0,30.12,WNW,286,0.0,0.0,95,0.00,,,0.16,0.000000,,2013-07-20 05:32:00,
2013-07-20 01:52:00,71.0,69.0,30.12,WNW,286,0.0,0.0,95,0.00,,,0.16,0.000000,,2013-07-20 05:52:00,
2013-07-20 02:01:00,71.0,69.0,30.12,WNW,286,0.0,0.0,95,0.00,,,0.16,0.000000,,2013-07-20 06:01:00,
2013-07-20 02:11:00,71.0,69.0,30.12,WNW,286,0.0,0.0,95,0.00,,,0.16,0.000000,,2013-07-20 06:11:00,
2013-07-20 02:22:00,71.0,69.0,30.11,WNW,286,0.0,0.0,95,0.00,,,0.16,0.000000,,2013-07-20 06:22:00,
2013-07-20 02:32:00,71.0,69.0,30.11,WNW,286,0.0,0.0,95,0.00,,,0.16,0.000000,,2013-07-20 06:32:00,
2013-07-20 02:43:00,71.0,69.0,30.11,WNW,286,0.0,0.0,95,0.00,,,0.16,0.000000,,2013-07-20 06:43:00,
2013-07-20 02:52:00,71.0,70.0,30.11,WNW,286,0.0,1.0,97,0.00,,,0.16,0.000000,,2013-07-20 06:52:00,
2013-07-20 03:01:00,71.0,70.0,30.11,WNW,286,0.0,1.0,97,0.00,,,0.16,0.000000,,2013-07-20 07:01:00,
2013-07-20 03:12:00,71.0,70.0,30.11,WNW,286,0.0,1.0,97,0.00,,,0.16,0.000000,,2013-07-20 07:12:00,
2013-07-20 03:22:00,71.0,70.0,30.10,WNW,286,0.0,0.0,97,0.00,,,0.16,0.000000,,2013-07-20 07:22:00,
2013-07-20 03:33:00,71.0,70.0,30.10,WNW,286,0.0,0.0,97,0.00,,,0.16,0.000000,,2013-07-20 07:33:00,
2013-07-20 03:44:00,71.0,70.0,30.10,WNW,286,0.0,0.0,97,0.00,,,0.16,0.000000,,2013-07-20 07:44:00,
2013-07-20 03:54:00,70.0,69.0,30.10,WNW,286,0.0,1.0,97,0.00,,,0.16,0.000000,,2013-07-20 07:54:00,
2013-07-20 04:02:00,70.0,69.0,30.10,WNW,286,0.0,1.0,97,0.00,,,0.16,0.000000,,2013-07-20 08:02:00,
2013-07-20 04:11:00,70.0,69.0,30.10,WNW,286,0.0,1.0,97,0.00,,,0.16,0.000000,,2013-07-20 08:11:00,
2013-07-20 04:22:00,70.0,69.0,30.09,WNW,286,0.0,0.0,97,0.00,,,0.16,0.000000,,2013-07-20 08:22:00,
2013-07-20 04:32:00,70.0,69.0,30.09,WNW,286,0.0,0.0,97,0.00,,,0.16,0.000000,,2013-07-20 08:32:00,
2013-07-20 04:44:00,70.0,69.0,30.09,WNW,286,0.0,0.0,97,0.00,,,0.16,0.000000,,2013-07-20 08:44:00,
2013-07-20 04:52:00,70.0,69.0,30.09,WNW,286,0.0,0.0,97,0.00,,,0.16,0.000000,,2013-07-20 08:52:00,
2013-07-20 05:02:00,70.0,69.0,30.09,WNW,286,0.0,0.0,97,0.00,,,0.16,0.000000,,2013-07-20 09:02:00,
2013-07-20 05:11:00,70.0,69.0,30.09,WNW,286,0.0,0.0,97,0.00,,,0.16,0.000000,,2013-07-20 09:11:00,
2013-07-20 05:22:00,70.0,69.0,30.09,WNW,286,0.0,0.0,98,0.00,,,0.16,0.000000,,2013-07-20 09:22:00,
2013-07-20 05:33:00,70.0,69.0,30.09,WNW,286,0.0,0.0,98,0.00,,,0.16,0.000000,,2013-07-20 09:33:00,
2013-07-20 05:43:00,70.0,69.0,30.09,WNW,286,0.0,0.0,98,0.00,,,0.16,0.000000,,2013-07-20 09:43:00,
2013-07-20 05:53:00,70.0,69.0,30.09,WNW,286,0.0,0.0,98,0.00,,,0.16,0.000000,,2013-07-20 09:53:00,
2013-07-20 06:01:00,70.0,69.0,30.09,WNW,286,0.0,0.0,98,0.00,,,0.16,0.000000,,2013-07-20 10:01:00,
2013-07-20 06:11:00,70.0,69.0,30.09,WNW,286,0.0,0.0,98,0.00,,,0.16,0.000000,,2013-07-20 10:11:00,
2013-07-20 06:22:00,70.0,69.0,30.10,WNW,286,0.0,0.0,98,0.00,,,0.16,0.000000,,2013-07-20 10:22:00,
2013-07-20 06:32:00,70.0,69.0,30.10,WNW,286,0.0,0.0,98,0.00,,,0.16,0.000000,,2013-07-20 10:32:00,
2013-07-20 06:42:00,70.0,69.0,30.10,WNW,286,0.0,0.0,98,0.00,,,0.16,0.000000,,2013-07-20 10:42:00,
2013-07-20 06:52:00,70.0,69.0,30.10,WNW,286,0.0,0.0,98,0.00,,,0.16,0.000000,,2013-07-20 10:52:00,
2013-07-20 07:02:00,70.0,69.0,30.10,WNW,286,0.0,0.0,98,0.00,,,0.16,0.000000,,2013-07-20 11:02:00,
2013-07-20 07:32:00,69.0,68.0,30.11,WNW,286,0.0,0.0,98,0.00,,,0.16,12.000000,,2013-07-20 11:32:00,
2013-07-20 07:43:00,69.0,68.0,30.11,WNW,286,0.0,0.0,98,0.00,,,0.16,12.000000,,2013-07-20 11:43:00,
2013-07-20 07:52:00,69.0,68.0,30.11,WNW,286,0.0,0.0,98,0.00,,,0.16,32.000000,,2013-07-20 11:52:00,
2013-07-20 08:01:00,69.0,68.0,30.11,WNW,286,0.0,0.0,98,0.00,,,0.16,32.000000,,2013-07-20 12:01:00,
2013-07-20 08:11:00,69.0,68.0,30.11,WNW,286,0.0,0.0,98,0.00,,,0.16,32.000000,,2013-07-20 12:11:00,
2013-07-20 08:32:00,70.0,70.0,30.11,WNW,286,0.0,0.0,99,0.00,,,0.16,60.000000,,2013-07-20 12:32:00,
2013-07-20 08:52:00,71.0,71.0,30.11,WNW,286,0.0,0.0,99,0.00,,,0.16,98.000000,,2013-07-20 12:52:00,
2013-07-20 09:11:00,71.0,71.0,30.11,WNW,286,0.0,0.0,99,0.00,,,0.16,98.000000,,2013-07-20 13:11:00,
2013-07-20 09:22:00,72.0,72.0,30.12,WNW,286,0.0,1.0,99,0.00,,,0.16,195.000000,,2013-07-20 13:22:00,
2013-07-20 09:43:00,72.0,72.0,30.12,WNW,286,0.0,1.0,99,0.00,,,0.16,195.000000,,2013-07-20 13:43:00,
2013-07-20 09:53:00,74.0,73.0,30.12,WNW,286,0.0,1.0,98,0.00,,,0.16,559.000000,,2013-07-20 13:53:00,
2013-07-20 10:02:00,74.0,73.0,30.12,WNW,286,0.0,1.0,98,0.00,,,0.16,559.000000,,2013-07-20 14:02:00,
2013-07-20 10:11:00,74.0,73.0,30.12,WNW,286,0.0,1.0,98,0.00,,,0.16,559.000000,,2013-07-20 14:11:00,
2013-07-20 10:22:00,78.0,74.0,30.12,WNW,286,0.0,0.0,88,0.00,,,0.16,202.000000,,2013-07-20 14:22:00,
2013-07-20 10:32:00,78.0,74.0,30.12,WNW,286,0.0,0.0,88,0.00,,,0.16,202.000000,,2013-07-20 14:32:00,
2013-07-20 10:43:00,78.0,74.0,30.12,WNW,286,0.0,0.0,88,0.00,,,0.16,202.000000,,2013-07-20 14:43:00,
2013-07-20 10:53:00,79.0,74.0,30.12,WNW,286,0.0,0.0,85,0.00,,,0.16,269.000000,,2013-07-20 14:53:00,
2013-07-20 11:01:00,79.0,74.0,30.12,WNW,286,0.0,0.0,85,0.00,,,0.16,269.000000,,2013-07-20 15:01:00,
2013-07-20 11:11:00,79.0,74.0,30.12,WNW,286,0.0,0.0,85,0.00,,,0.16,269.000000,,2013-07-20 15:11:00,
2013-07-20 11:22:00,79.0,73.0,30.12,WNW,286,0.0,0.0,82,0.00,,,0.16,236.000000,,2013-07-20 15:22:00,
2013-07-20 11:33:00,79.0,73.0,30.12,WNW,286,0.0,0.0,82,0.00,,,0.16,236.000000,,2013-07-20 15:33:00,
2013-07-20 11:44:00,79.0,73.0,30.12,WNW,286,0.0,0.0,82,0.00,,,0.16,236.000000,,2013-07-20 15:44:00,
2013-07-20 11:53:00,81.0,74.0,30.12,WNW,286,0.0,1.0,80,0.00,,,0.16,455.000000,,2013-07-20 15:53:00,
2013-07-20 12:01:00,81.0,74.0,30.12,WNW,286,0.0,1.0,80,0.00,,,0.16,455.000000,,2013-07-20 16:01:00,
2013-07-20 12:11:00,81.0,74.0,30.12,WNW,286,0.0,1.0,80,0.00,,,0.16,455.000000,,2013-07-20 16:11:00,
2013-07-20 12:22:00,82.0,74.0,30.12,WNW,286,0.0,2.0,76,0.00,,,0.16,445.000000,,2013-07-20 16:22:00,
2013-07-20 12:32:00,82.0,74.0,30.12,WNW,286,0.0,2.0,76,0.00,,,0.16,445.000000,,2013-07-20 16:32:00,
2013-07-20 12:44:00,82.0,74.0,30.12,WNW,286,0.0,2.0,76,0.00,,,0.16,445.000000,,2013-07-20 16:44:00,
2013-07-20 12:52:00,86.0,75.0,30.11,WNW,286,0.0,1.0,69,0.00,,,0.16,905.000000,,2013-07-20 16:52:00,
2013-07-20 13:02:00,86.0,75.0,30.11,WNW,286,0.0,1.0,69,0.00,,,0.16,905.000000,,2013-07-20 17:02:00,
2013-07-20 13:11:00,86.0,75.0,30.11,WNW,286,0.0,1.0,69,0.00,,,0.16,905.000000,,2013-07-20 17:11:00,
2013-07-20 13:22:00,89.0,74.0,30.10,WNW,286,0.0,1.0,61,0.00,,,0.16,977.000000,,2013-07-20 17:22:00,
2013-07-20 13:32:00,89.0,74.0,30.10,WNW,286,0.0,1.0,61,0.00,,,0.16,977.000000,,2013-07-20 17:32:00,
2013-07-20 13:43:00,89.0,74.0,30.10,WNW,286,0.0,1.0,61,0.00,,,0.16,977.000000,,2013-07-20 17:43:00,
2013-07-20 13:53:00,92.0,76.0,30.08,WNW,286,0.0,1.0,60,0.00,,,0.16,606.000000,,2013-07-20 17:53:00,
2013-07-20 14:01:00,92.0,76.0,30.08,WNW,286,0.0,1.0,60,0.00,,,0.16,606.000000,,2013-07-20 18:01:00,
2013-07-20 14:03:00,87.0,75.0,30.07,WNW,286,0.0,1.0,68,0.00,,,0.16,95.000000,,2013-07-20 18:03:00,
2013-07-20 14:12:00,92.0,76.0,30.08,WNW,286,0.0,1.0,60,0.00,,,0.16,606.000000,,2013-07-20 18:12:00,
2013-07-20 14:24:00,87.0,75.0,30.07,WNW,286,0.0,1.0,68,0.00,,,0.16,95.000000,,2013-07-20 18:24:00,
2013-07-20 14:36:00,87.0,75.0,30.07,WNW,286,0.0,1.0,68,0.00,,,0.16,95.000000,,2013-07-20 18:36:00,
2013-07-20 14:47:00,87.0,75.0,30.07,WNW,286,0.0,1.0,68,0.00,,,0.16,95.000000,,2013-07-20 18:47:00,
2013-07-20 14:59:00,87.0,75.0,30.07,WNW,286,0.0,1.0,68,0.00,,,0.16,95.000000,,2013-07-20 18:59:00,
2013-07-20 15:26:00,86.0,76.0,30.05,ESE,105,0.0,0.0,72,0.00,,,0.16,353.000000,,2013-07-20 19:26:00,
2013-07-20 15:35:00,86.0,76.0,30.05,ESE,105,0.0,0.0,72,0.00,,,0.16,353.000000,,2013-07-20 19:35:00,
2013-07-20 15:44:00,86.0,76.0,30.05,ESE,105,0.0,0.0,72,0.00,,,0.16,353.000000,,2013-07-20 19:44:00,
2013-07-20 16:06:00,85.0,75.0,30.05,ESE,105,0.0,0.0,71,0.00,,,0.16,111.000000,,2013-07-20 20:06:00,
2013-07-20 16:15:00,85.0,75.0,30.05,ESE,105,0.0,0.0,71,0.00,,,0.16,111.000000,,2013-07-20 20:15:00,
2013-07-20 16:24:00,79.0,71.0,30.03,ENE,63,0.0,2.0,77,0.00,,,0.16,100.000000,,2013-07-20 20:24:00,
2013-07-20 16:33:00,79.0,71.0,30.03,ENE,63,0.0,2.0,77,0.00,,,0.16,100.000000,,2013-07-20 20:33:00,
2013-07-20 16:47:00,79.0,71.0,30.03,ENE,63,0.0,2.0,77,0.00,,,0.16,100.000000,,2013-07-20 20:47:00,
2013-07-20 16:58:00,73.0,70.0,30.06,WSW,252,0.0,3.0,89,0.01,,,0.17,18.000000,,2013-07-20 20:58:00,
2013-07-20 17:15:00,73.0,70.0,30.06,WSW,252,0.0,3.0,89,0.01,,,0.17,18.000000,,2013-07-20 21:15:00,
2013-07-20 17:28:00,71.0,69.0,30.06,ESE,109,0.0,1.0,93,0.07,,,0.23,35.000000,,2013-07-20 21:28:00,
2013-07-20 17:34:00,71.0,69.0,30.06,ESE,109,0.0,1.0,93,0.07,,,0.23,35.000000,,2013-07-20 21:34:00,
2013-07-20 17:48:00,71.0,69.0,30.06,ESE,109,0.0,1.0,93,0.07,,,0.23,35.000000,,2013-07-20 21:48:00,
2013-07-20 17:56:00,70.0,68.0,30.06,SSW,210,0.0,3.0,95,0.06,,,0.23,47.000000,,2013-07-20 21:56:00,
2013-07-20 18:06:00,70.0,68.0,30.06,SSW,210,0.0,3.0,95,0.06,,,0.23,47.000000,,2013-07-20 22:06:00,
2013-07-20 18:17:00,70.0,68.0,30.06,SSW,210,0.0,3.0,95,0.06,,,0.23,47.000000,,2013-07-20 22:17:00,
2013-07-20 18:26:00,71.0,70.0,30.06,SSW,210,0.0,0.0,96,0.00,,,0.23,54.000000,,2013-07-20 22:26:00,
2013-07-20 18:34:00,71.0,70.0,30.06,SSW,210,0.0,0.0,96,0.00,,,0.23,54.000000,,2013-07-20 22:34:00,
2013-07-20 18:50:00,71.0,70.0,30.06,SSW,210,0.0,0.0,96,0.00,,,0.23,54.000000,,2013-07-20 22:50:00,
2013-07-20 18:57:00,71.0,70.0,30.04,SSW,210,0.0,0.0,97,0.00,,,0.23,40.000000,,2013-07-20 22:57:00,
2013-07-20 19:05:00,71.0,70.0,30.04,SSW,210,0.0,0.0,97,0.00,,,0.23,40.000000,,2013-07-20 23:05:00,
2013-07-20 19:17:00,71.0,70.0,30.04,SSW,210,0.0,0.0,97,0.00,,,0.23,40.000000,,2013-07-20 23:17:00,
2013-07-20 19:28:00,72.0,71.0,30.04,SSW,210,0.0,0.0,97,0.01,,,0.24,49.000000,,2013-07-20 23:28:00,
2013-07-20 19:36:00,72.0,71.0,30.04,SSW,210,0.0,0.0,97,0.01,,,0.24,49.000000,,2013-07-20 23:36:00,
2013-07-20 19:46:00,72.0,71.0,30.04,SSW,210,0.0,0.0,97,0.01,,,0.24,49.000000,,2013-07-20 23:46:00,
2013-07-20 19:57:00,72.0,71.0,30.04,SSW,210,0.0,0.0,97,0.01,,,0.24,58.000000,,2013-07-20 23:57:00,
2013-07-20 20:07:00,72.0,71.0,30.04,SSW,210,0.0,0.0,97,0.01,,,0.24,58.000000,,2013-07-21 00:07:00,
2013-07-20 20:18:00,72.0,71.0,30.04,SSW,210,0.0,0.0,97,0.01,,,0.24,58.000000,,2013-07-21 00:18:00,
2013-07-20 20:24:00,72.0,71.0,30.04,SSW,210,0.0,1.0,97,0.00,,,0.24,26.000000,,2013-07-21 00:24:00,
2013-07-20 20:45:00,72.0,71.0,30.04,SSW,210,0.0,1.0,97,0.00,,,0.24,26.000000,,2013-07-21 00:45:00,
2013-07-20 20:56:00,72.0,71.0,30.05,SSW,210,0.0,0.0,97,0.00,,,0.24,5.000000,,2013-07-21 00:56:00,
2013-07-20 21:06:00,72.0,71.0,30.05,SSW,210,0.0,0.0,97,0.00,,,0.24,5.000000,,2013-07-21 01:06:00,
2013-07-20 21:13:00,72.0,71.0,30.05,SSW,210,0.0,0.0,97,0.00,,,0.24,5.000000,,2013-07-21 01:13:00,
2013-07-20 21:36:00,71.0,70.0,30.06,SSW,210,0.0,0.0,97,0.00,,,0.24,0.000000,,2013-07-21 01:36:00,
2013-07-20 21:49:00,-999.0,-99.9,30.06,SSW,210,0.0,0.0,-999,-99.99,,,-99.99,,,2013-07-21 01:49:00,
2013-07-20 21:59:00,71.0,70.0,30.07,SSW,210,0.0,0.0,97,0.00,,,0.24,0.000000,,2013-07-21 01:59:00,
2013-07-20 22:06:00,71.0,70.0,30.07,SSW,210,0.0,0.0,97,0.00,,,0.24,0.000000,,2013-07-21 02:06:00,
2013-07-20 22:27:00,71.0,70.0,30.09,SSW,210,0.0,0.0,97,0.00,,,0.24,0.000000,,2013-07-21 02:27:00,
2013-07-20 22:36:00,71.0,70.0,30.09,SSW,210,0.0,0.0,97,0.00,,,0.24,0.000000,,2013-07-21 02:36:00,
2013-07-20 22:47:00,71.0,70.0,30.09,SSW,210,0.0,0.0,97,0.00,,,0.24,0.000000,,2013-07-21 02:47:00,
2013-07-20 22:58:00,71.0,70.0,30.10,SSW,210,0.0,0.0,98,0.00,,,0.24,0.000000,,2013-07-21 02:58:00,
2013-07-20 23:05:00,71.0,70.0,30.10,SSW,210,0.0,0.0,98,0.00,,,0.24,0.000000,,2013-07-21 03:05:00,
2013-07-20 23:14:00,71.0,70.0,30.10,SSW,210,0.0,0.0,98,0.00,,,0.24,0.000000,,2013-07-21 03:14:00,
2013-07-20 23:47:00,71.0,70.0,30.11,SSW,210,0.0,0.0,98,0.00,,,0.24,0.000000,,2013-07-21 03:47:00,